Location: Newark
(45.9456°N, 15.4064°E)
Time: 15:06:43
(UTC+00:00)

SR - Pass Details

Date: 01 February 2020
Orbit: 575 x 880 km, 66.7° (Epoch: 26 February)

Event Time Altitude Azimuth Distance (km) Brightness Sun altitude
Rises 21:39:34 0° 267° (W) 3,468 - -55.3°
Reaches altitude 10° 21:42:53 10° 285° (WNW) 2,540 - -55.7°
Maximum altitude 21:46:55 19° 328° (NNW) 1,998 - -56.1°
Drops below altitude 10° 21:50:55 10° 11° (NNE) 2,513 - -56.6°
Sets 21:54:11 0° 30° (NNE) 3,418 - -56.9°
